Weather History for Buffalo, WY

Change the Weather History Date:

Friday, January 4, 2013

  Actual Average Record
Temperature  
Mean Temperature 31 °F 27 °F  
Max Temperature 43 °F 39 °F 59 °F (2012)
Min Temperature 18 °F 16 °F -14 °F (2004)
Degree Days  
Heating Degree Days 34 38  
Month to date heating degree days 161 152  
Since 1 July heating degree days 2886 3199  
Cooling Degree Days 0 0  
Month to date cooling degree days 0 0  
Year to date cooling degree days 0 0  
Moisture  
Dew Point 9 °F    
Average Humidity 42    
Maximum Humidity 55    
Minimum Humidity 28    
Precipitation  
Precipitation 0.00 in 0.01 in 0.11 in (2005)
Month to date precipitation T 0.04  
Year to date precipitation T 0.04  
Sea Level Pressure  
Sea Level Pressure 30.13 in    
Wind  
Wind Speed 6 mph (WNW)    
Max Wind Speed 16 mph    
Max Gust Speed 20 mph    
Visibility 10 miles    
Events      
T = Trace of Precipitation, MM = Missing Value Source: NWS Daily Summary

Daily Weather History Graph

Daily Weather History Graph

Search for Another Location

Airport:

Trip Planner

Search our weather history database for the weather conditions in past years. The results will help you decide how hot, cold, wet, or windy it might be!

Date:

Astronomy

Jan. 04, 2013 Rise Set
Actual Time 7:42 AM MST 4:41 PM MST
Civil Twilight 7:09 AM MST 5:14 PM MST
Nautical Twilight 6:33 AM MST 5:50 PM MST
Astronomical Twilight 5:58 AM MST 6:26 PM MST
Moon No Moon Rise 11:09 AM MST (1/4)
Length of Visible Light 10h 04m
Length of Day
8h 58m
Waning Gibbous, 54% of the Moon is Illuminated
Jan 4
Waning Gibbous
Jan 4
Last Quarter
Jan 11
New
Jan 18
First Quarter
Jan 26
Full

Hourly Weather History & Observations

Time (MST) Temp. Windchill Dew Point Humidity Pressure Visibility Wind Dir Wind Speed Gust Speed Precip Events Conditions
12:53 AM 34.0 °F 29.8 °F 3.0 °F 27% 30.15 in 10.0 mi WSW 4.6 mph - N/A   Clear
1:53 AM 30.9 °F 25.2 °F 3.9 °F 32% 30.15 in 10.0 mi South 5.8 mph - N/A   Clear
2:53 AM 28.9 °F 21.9 °F 5.0 °F 36% 30.14 in 10.0 mi South 6.9 mph - N/A   Clear
3:53 AM 30.0 °F - 5.0 °F 35% 30.12 in 10.0 mi Calm Calm - N/A   Clear
4:53 AM 28.0 °F - 5.0 °F 38% 30.14 in 10.0 mi Calm Calm - N/A   Clear
5:53 AM 19.0 °F 11.1 °F 3.9 °F 52% 30.15 in 10.0 mi North 5.8 mph - N/A   Clear
6:53 AM 24.1 °F - 3.9 °F 42% 30.14 in 10.0 mi Calm Calm - N/A   Clear
7:53 AM 27.0 °F 19.5 °F 7.0 °F 43% 30.10 in 10.0 mi SW 6.9 mph - N/A   Clear
8:53 AM 36.0 °F 27.5 °F 6.1 °F 29% 30.09 in 10.0 mi NNW 12.7 mph - N/A   Clear
9:53 AM 35.1 °F 27.9 °F 10.0 °F 35% 30.12 in 10.0 mi NNW 9.2 mph - N/A   Clear
10:53 AM 39.9 °F 33.4 °F 12.9 °F 33% 30.12 in 10.0 mi NNW 10.4 mph - N/A   Clear
11:53 AM 39.9 °F 36.7 °F 14.0 °F 35% 30.11 in 10.0 mi NW 4.6 mph - N/A   Clear
12:53 PM 43.0 °F 39.5 °F 12.9 °F 30% 30.05 in 10.0 mi North 5.8 mph - N/A   Clear
1:53 PM 42.1 °F 39.2 °F 15.1 °F 34% 30.07 in 10.0 mi North 4.6 mph - N/A   Clear
2:53 PM 39.9 °F 34.5 °F 15.1 °F 36% 30.08 in 10.0 mi North 8.1 mph - N/A   Clear
3:53 PM 37.9 °F 32.1 °F 16.0 °F 41% 30.10 in 10.0 mi North 8.1 mph - N/A   Clear
4:53 PM 33.1 °F 26.9 °F 12.0 °F 42% 30.14 in 10.0 mi NW 6.9 mph - N/A   Clear
5:53 PM 32.0 °F 23.0 °F 10.9 °F 42% 30.18 in 10.0 mi NW 11.5 mph - N/A   Clear
6:53 PM 24.1 °F 18.2 °F 10.0 °F 55% 30.19 in 10.0 mi West 4.6 mph - N/A   Clear
7:53 PM 26.1 °F 20.5 °F 8.1 °F 47% 30.17 in 10.0 mi Variable 4.6 mph - N/A   Clear
8:53 PM 34.0 °F 29.8 °F 8.1 °F 34% 30.12 in 10.0 mi SW 4.6 mph - N/A   Clear
9:53 PM 28.9 °F 22.8 °F 8.1 °F 41% 30.14 in 10.0 mi WSW 5.8 mph - N/A   Clear
10:53 PM 28.0 °F 21.7 °F 8.1 °F 43% 30.14 in 10.0 mi WNW 5.8 mph - N/A   Clear
11:53 PM 25.0 °F - 8.1 °F 49% 30.15 in 10.0 mi Calm Calm - N/A   Clear